Location: Bennemühlen
(52.5740°N, 9.7135°E)
Time: 07:11:29
(UTC+00:00)

Vanguard 2 Rocket - Pass Details

Date: 19 February 2026
Orbit: 553 x 3286 km, 32.9° (Epoch: 11 March)

Event Time Altitude Azimuth Distance (km) Brightness Sun altitude
Rises 12:29:18 0° 237° (WSW) 7,232 12.2 25.2°
Reaches altitude 10° 12:35:08 10° 229° (SW) 6,073 12.2 25.0°
Maximum altitude 12:49:53 32° 176° (S) 3,727 11.6 24.3°
Drops below altitude 10° 13:00:19 10° 120° (ESE) 4,280 10.5 23.7°
Sets 13:03:35 0° 110° (ESE) 4,916 10.6 23.5°
